Date String (YYYY-MM-DD hh:mm:ss) UTC,Instrument flags,Ambient pressure (hPa),Sample flow (lpm),Bypass flow (lpm),Sample temperature (°C),Ambient temperature (°C),ASC tube jacket temperature (°C),LED temperature (°C),Box temperature (°C),Sample RH (%),Span deviation,Mass concentration (μg/m³),Mass concentration (μg/m³),Mass concentration (μg/m³)
DateTimeUTC,F1_M11,P_M11,Q1_M11,Q2_M11,T1_M11,T2_M11,T3_M11,T4_M11,T5_M11,U1_M11,ZSPAN_M11,X2_M11,X0_M11,X1_M11
2022-08-31 09:00:00,,0831.2,5.00,0.00,29.8,28.0,00.0,38.6,31.6,21.9,0000.0,0007.58,0016.29,0006.31
2022-08-31 09:01:00,,0831.2,5.00,0.00,29.8,28.2,00.0,38.6,31.6,21.9,0000.0,0007.55,0016.22,0006.33
2022-08-31 09:02:00,,0831.1,5.01,0.00,29.8,28.4,00.0,38.6,31.6,21.8,0000.0,0007.58,0016.62,0006.36
2022-08-31 09:03:00,,0831.1,5.00,0.00,29.8,28.5,00.0,38.6,31.7,21.6,0000.0,0007.58,0016.56,0006.38
2022-08-31 09:04:00,,0831.1,5.00,0.00,29.9,28.6,00.0,38.6,31.7,21.4,0000.0,0007.57,0016.72,0006.38
2022-08-31 09:05:00,,0831.1,4.99,0.00,29.9,28.7,00.0,38.6,31.7,21.1,0000.0,0007.60,0018.23,0006.37
2022-08-31 09:06:00,,0831.1,5.00,0.00,29.9,28.7,00.0,38.6,31.7,21.0,0000.0,0007.61,0018.64,0006.34
2022-08-31 09:07:00,,0831.2,5.00,0.00,29.9,28.8,00.0,38.6,31.8,20.9,0000.0,0007.55,0019.26,0006.29
2022-08-31 09:08:00,,0831.2,5.01,0.00,29.9,28.9,00.0,38.6,31.8,20.8,0000.0,0007.49,0018.93,0006.24
2022-08-31 09:09:00,,0831.2,4.99,0.00,29.9,28.9,00.0,38.6,31.8,20.7,0000.0,0007.49,0019.21,0006.21
2022-08-31 09:10:00,,0831.3,5.01,0.00,30.0,29.0,00.0,38.7,31.9,20.7,0000.0,0007.46,0018.71,0006.17
2022-08-31 09:11:00,,0831.4,5.01,0.00,30.0,29.0,00.0,38.7,31.9,20.7,0000.0,0007.45,0018.63,0006.13
2022-08-31 09:12:00,,0831.4,4.99,0.00,30.0,29.0,00.0,38.7,31.9,20.7,0000.0,0007.46,0020.13,0006.10
2022-08-31 09:13:00,,0831.6,5.00,0.00,30.1,29.1,00.0,38.7,32.0,20.7,0000.0,0007.46,0021.45,0006.07
2022-08-31 09:14:00,,0831.5,5.00,0.00,30.1,29.1,00.0,38.7,32.0,20.4,0000.0,0007.48,0021.63,0006.04
2022-08-31 09:15:00,,0831.6,4.98,0.00,30.1,29.1,00.0,38.8,32.0,20.3,0000.0,0007.46,0021.60,0006.00
2022-08-31 09:16:00,,0831.6,5.01,0.00,30.1,29.1,00.0,38.8,32.0,20.2,0000.0,0007.30,0020.54,0005.94
2022-08-31 09:17:00,,0831.7,5.00,0.00,30.1,28.1,00.0,38.8,32.0,20.2,0000.0,0007.19,0019.37,0005.88
2022-08-31 09:18:00,,0831.6,5.01,0.00,30.1,27.1,00.0,38.7,31.9,20.2,0000.0,0007.15,0018.32,0005.84
2022-08-31 09:19:00,,0831.7,5.00,0.00,30.0,27.1,00.0,38.7,31.8,20.3,0000.0,0007.11,0018.15,0005.80
2022-08-31 09:20:00,,0831.6,5.00,0.00,29.9,27.3,00.0,38.7,31.6,20.4,0000.0,0007.06,0018.39,0005.75
2022-08-31 09:21:00,,0831.7,5.00,0.00,29.9,27.6,00.0,38.6,31.6,20.7,0000.0,0006.97,0018.00,0005.72
2022-08-31 09:22:00,,0831.6,5.00,0.00,29.9,27.9,00.0,38.6,31.6,20.9,0000.0,0006.91,0017.85,0005.67
2022-08-31 09:23:00,,0831.6,5.00,0.00,29.9,28.1,00.0,38.6,31.6,20.8,0000.0,0006.84,0016.38,0005.63
2022-08-31 09:24:00,,0831.6,5.00,0.00,29.9,28.3,00.0,38.6,31.7,20.7,0000.0,0006.78,0014.82,0005.58
2022-08-31 09:25:00,,0831.5,5.00,0.00,29.9,28.4,00.0,38.6,31.7,20.7,0000.0,0006.75,0014.59,0005.55
2022-08-31 09:26:00,,0831.5,5.01,0.00,29.9,28.5,00.0,38.6,31.7,20.8,0000.0,0006.78,0015.05,0005.52
2022-08-31 09:27:00,,0831.5,4.99,0.00,29.9,28.6,00.0,38.6,31.7,20.7,0000.0,0006.89,0016.19,0005.53
2022-08-31 09:28:00,,0831.5,5.00,0.00,29.9,28.7,00.0,38.6,31.8,20.6,0000.0,0006.93,0016.87,0005.52
2022-08-31 09:29:00,,0831.5,5.01,0.00,29.9,28.8,00.0,38.7,31.8,20.7,0000.0,0006.91,0016.86,0005.51
2022-08-31 09:30:00,,0831.5,5.00,0.00,30.0,28.9,00.0,38.7,31.8,20.7,0000.0,0006.88,0016.23,0005.51
2022-08-31 09:31:00,,0831.5,5.01,0.00,30.0,28.9,00.0,38.7,31.8,20.8,0000.0,0006.84,0015.71,0005.50
2022-08-31 09:32:00,,0831.5,4.98,0.00,30.0,29.0,00.0,38.7,31.9,20.8,0000.0,0006.85,0015.73,0005.48
2022-08-31 09:33:00,,0831.5,5.01,0.00,30.0,29.0,00.0,38.7,31.9,20.9,0000.0,0006.79,0015.87,0005.46
2022-08-31 09:34:00,,0831.5,5.01,0.00,30.0,29.1,00.0,38.7,31.9,20.9,0000.0,0006.81,0016.97,0005.46
2022-08-31 09:35:00,,0831.5,4.98,0.00,30.1,29.1,00.0,38.7,32.0,20.9,0000.0,0006.84,0017.75,0005.47
2022-08-31 09:36:00,,0831.5,5.00,0.00,30.1,29.1,00.0,38.8,32.0,20.8,0000.0,0006.81,0018.00,0005.47
2022-08-31 09:37:00,,0831.5,5.00,0.00,30.1,29.2,00.0,38.8,32.0,20.8,0000.0,0006.78,0017.63,0005.46
2022-08-31 09:38:00,,0831.5,5.01,0.00,30.1,29.2,00.0,38.8,32.0,20.8,0000.0,0006.71,0017.09,0005.47
2022-08-31 09:39:00,,0831.5,4.99,0.00,30.2,29.2,00.0,38.8,32.1,20.8,0000.0,0006.69,0017.24,0005.50
2022-08-31 09:40:00,,0831.5,5.01,0.00,30.2,29.3,00.0,38.9,32.1,20.8,0000.0,0006.73,0017.70,0005.52
2022-08-31 09:41:00,,0831.5,4.99,0.00,30.2,29.3,00.0,38.9,32.1,20.9,0000.0,0006.76,0018.01,0005.52
2022-08-31 09:42:00,,0831.5,5.00,0.00,30.2,29.0,00.0,38.9,32.1,20.9,0000.0,0006.80,0017.72,0005.53
2022-08-31 09:43:00,,0831.5,5.01,0.00,30.2,27.6,00.0,38.9,32.0,21.1,0000.0,0006.80,0017.63,0005.55
2022-08-31 09:44:00,,0831.5,5.00,0.00,30.2,27.1,00.0,38.8,31.9,21.1,0000.0,0006.86,0018.43,0005.58
2022-08-31 09:45:00,,0831.5,5.01,0.00,30.1,27.2,00.0,38.8,31.8,21.1,0000.0,0006.83,0017.03,0005.58
2022-08-31 09:46:00,,0831.5,5.00,0.00,30.0,27.5,00.0,38.8,31.7,21.2,0000.0,0006.81,0017.28,0005.59
2022-08-31 09:47:00,,0831.5,5.00,0.00,30.0,27.7,00.0,38.7,31.7,21.4,0000.0,0006.81,0018.09,0005.60
2022-08-31 09:48:00,,0831.5,4.99,0.00,30.0,28.0,00.0,38.7,31.7,21.4,0000.0,0006.80,0019.79,0005.63
2022-08-31 09:49:00,,0831.5,5.01,0.00,29.9,28.2,00.0,38.7,31.7,21.5,0000.0,0006.82,0019.35,0005.64
2022-08-31 09:50:00,,0831.5,5.00,0.00,29.9,28.4,00.0,38.7,31.7,21.5,0000.0,0006.83,0018.69,0005.64
2022-08-31 09:51:00,,0831.5,5.00,0.00,29.9,28.5,00.0,38.7,31.7,22.0,0000.0,0006.84,0018.57,0005.65
2022-08-31 09:52:00,,0831.5,5.00,0.00,29.9,28.6,00.0,38.7,31.7,22.3,0000.0,0006.90,0018.80,0005.67
2022-08-31 09:53:00,,0831.5,5.00,0.00,30.0,28.7,00.0,38.7,31.8,22.2,0000.0,0006.92,0019.25,0005.70
2022-08-31 09:54:00,,0831.5,5.00,0.00,30.0,28.7,00.0,38.7,31.8,22.0,0000.0,0006.94,0019.06,0005.72
2022-08-31 09:55:00,,0831.5,5.01,0.00,30.0,28.8,00.0,38.7,31.8,21.9,0000.0,0006.94,0018.08,0005.74
2022-08-31 09:56:00,,0831.5,5.00,0.00,30.0,28.8,00.0,38.7,31.9,22.0,0000.0,0006.93,0019.08,0005.76
2022-08-31 09:57:00,,0831.5,5.00,0.00,30.0,28.8,00.0,38.7,31.9,21.9,0000.0,0006.96,0019.70,0005.78
2022-08-31 09:58:00,,0831.4,4.99,0.00,30.0,28.9,00.0,38.8,31.9,21.6,0000.0,0006.96,0018.59,0005.80
2022-08-31 09:59:00,,0831.4,5.01,0.00,30.0,28.9,00.0,38.8,31.9,21.7,0000.0,0006.97,0016.67,0005.81
